Darstellungsparameter: Aktuell verwendete Einstellungen:
Skalierung der Graphiken ... ?
xyx+y,   Skalierungsfaktor:      Skalierung: Modus: x, Faktor: 1
Darstellungszeitraum ... ?
Vom - - bis: - -   Zeitraum: 20.09.2010 - 24.09.2010
Min/Max/Avg-Anzeige ... ?
Zeige MMA aktuell
Zeige MMA Monat
Zeige MMA alles
Zeige --A aktuell
Zeige --A Monat
Zeige --A alles
Keine MMA-Anzeige
MMA:
Average (ber die Originaldaten)
MMA-Basis: 23.08.2010 - 25.09.2010
Quicknavigation für Darstellung... ?
Tage:      1T, 2T, 3T, 5T -1T -2T -3T -5T +1T +2T +3T +5T
Wochen: 1W, 2W, 3W -1W -2W -3W +1W +2W +3W
Monate: 1M, 3M, 6M -1M -3M -6M +1M +3M +6M
Jahre:    1J, 3J, 5J, 10J -1J -3J -5J -10J +1J +3J +5J +10J
Nutze für die Darstellung ... ?
Originaldaten oder Mittelwerte auf ...
Stundenbasis Tagesbasis Wochenbasis
Monatsbasis Jahresbasis      Datenbasis: Original-Daten
Darstellen als:
Statistik (Auto) Statistik J:M      Darstellung:
Zur Graphik,    zurück zur Übersicht aller Sensoren.
 
Tabellarische Datenbersicht: ?
 
Sensor: Nr:Datum:Temp:Abs-Feuchte:Windchill:Wind:
Aussen-T/F 1 20-09-2010 00:05:01 11.9 C 6.88 g/m*3 11.9 C 0 km/h
2 20-09-2010 00:17:01 11.9 C 6.99 g/m*3 11.9 C 0 km/h
3 20-09-2010 00:29:02 11.9 C 6.88 g/m*3 11.9 C 0 km/h
4 20-09-2010 00:41:02 11.4 C 6.77 g/m*3 11.4 C 0 km/h
5 20-09-2010 00:53:02 11.3 C 6.83 g/m*3 11.3 C 0 km/h
6 20-09-2010 01:05:02 10.8 C 6.72 g/m*3 10.8 C 0 km/h
7 20-09-2010 01:17:02 10.5 C 6.69 g/m*3 10.5 C 0 km/h
8 20-09-2010 01:29:02 10.4 C 6.75 g/m*3 10.4 C 0 km/h
9 20-09-2010 01:41:02 10.2 C 6.85 g/m*3 10.2 C 0 km/h
10 20-09-2010 01:53:02 10.3 C 6.9 g/m*3 10.3 C 0 km/h
11 20-09-2010 02:05:02 10.1 C 6.81 g/m*3 10.1 C 0 km/h
12 20-09-2010 02:17:02 10 C 6.77 g/m*3 10 C 0 km/h
13 20-09-2010 02:29:02 9.8 C 6.96 g/m*3 9.8 C 0 km/h
14 20-09-2010 02:41:02 9.6 C 6.87 g/m*3 9.6 C 0 km/h
15 20-09-2010 02:53:02 9.7 C 7.01 g/m*3 9.7 C 0 km/h
16 20-09-2010 03:05:02 9.8 C 6.96 g/m*3 9.8 C 0 km/h
17 20-09-2010 03:17:02 9.6 C 6.96 g/m*3 9.6 C 0 km/h
18 20-09-2010 03:29:02 9.7 C 7.1 g/m*3 9.7 C 0 km/h
19 20-09-2010 03:41:02 9.7 C 7.1 g/m*3 9.7 C 0 km/h
20 20-09-2010 03:53:02 9.4 C 6.96 g/m*3 9.4 C 0 km/h
21 20-09-2010 04:05:02 9.3 C 6.92 g/m*3 9.3 C 0 km/h
22 20-09-2010 04:17:02 9.2 C 6.88 g/m*3 9.2 C 0 km/h
23 20-09-2010 04:29:02 9 C 6.88 g/m*3 9 C 0 km/h
24 20-09-2010 04:41:03 8.8 C 6.88 g/m*3 8.8 C 0 km/h
25 20-09-2010 04:53:03 8.6 C 6.87 g/m*3 8.6 C 0 km/h
Sensor: Nr:Datum:Temp:Abs-Feuchte:Windchill:Wind:
Aussen-T/F 26 20-09-2010 05:05:03 8.4 C 6.87 g/m*3 8.4 C 0 km/h
27 20-09-2010 05:17:03 8.4 C 6.87 g/m*3 8.4 C 0 km/h
28 20-09-2010 05:29:03 8.3 C 6.91 g/m*3 8.3 C 0 km/h
29 20-09-2010 05:41:03 8.2 C 6.87 g/m*3 8.2 C 0 km/h
30 20-09-2010 05:53:03 8.3 C 6.91 g/m*3 8.3 C 0 km/h
31 20-09-2010 06:05:03 8.3 C 6.91 g/m*3 8.3 C 0 km/h
32 20-09-2010 06:17:03 8.4 C 7.04 g/m*3 8.4 C 0 km/h
33 20-09-2010 06:29:03 8.5 C 7 g/m*3 8.5 C 0 km/h
34 20-09-2010 06:41:03 8.5 C 7 g/m*3 8.5 C 0 km/h
35 20-09-2010 06:53:03 8.7 C 7.18 g/m*3 8.7 C 0 km/h
36 20-09-2010 07:05:01 8.6 C 7.13 g/m*3 8.6 C 0 km/h
37 20-09-2010 07:17:02 8.4 C 7.04 g/m*3 8.4 C 0 km/h
38 20-09-2010 07:29:02 8.5 C 7.09 g/m*3 8.5 C 0 km/h
39 20-09-2010 07:41:01 8.5 C 7.09 g/m*3 8.5 C 0 km/h
40 20-09-2010 07:53:02 8.6 C 7.13 g/m*3 8.6 C 0 km/h
41 20-09-2010 08:05:02 9 C 7.14 g/m*3 9 C 0 km/h
42 20-09-2010 08:17:02 9.2 C 6.97 g/m*3 9.2 C 0 km/h
43 20-09-2010 08:29:02 9.2 C 6.79 g/m*3 9.2 C 0 km/h
44 20-09-2010 08:41:02 9.3 C 6.74 g/m*3 9.3 C 0 km/h
45 20-09-2010 08:53:01 9.2 C 6.7 g/m*3 9.2 C 0 km/h
46 20-09-2010 09:05:02 9.3 C 6.83 g/m*3 9.3 C 0 km/h
47 20-09-2010 09:17:01 9.6 C 6.87 g/m*3 9.6 C 0 km/h
48 20-09-2010 09:29:01 9.7 C 6.82 g/m*3 9.7 C 0 km/h
49 20-09-2010 09:41:01 10 C 6.95 g/m*3 10 C 0 km/h
50 20-09-2010 09:53:01 10.6 C 7.12 g/m*3 10.6 C 0 km/h
Sensor: Nr:Datum:Temp:Abs-Feuchte:Windchill:Wind:
Aussen-T/F 51 20-09-2010 10:05:02 11.4 C 7.29 g/m*3 11.4 C 0 km/h
52 20-09-2010 10:17:02 12.1 C 7.18 g/m*3 12.1 C 0 km/h
53 20-09-2010 10:29:02 12.4 C 7.1 g/m*3 12.4 C 0 km/h
54 20-09-2010 10:41:01 12.9 C 7.33 g/m*3 12.9 C 0 km/h
55 20-09-2010 10:53:01 13.2 C 7.12 g/m*3 13.2 C 0 km/h
56 20-09-2010 11:05:01 13.3 C 7.39 g/m*3 13.3 C 0 km/h
57 20-09-2010 11:17:02 13.8 C 7.15 g/m*3 13.8 C 0 km/h
58 20-09-2010 11:29:02 14.8 C 6.84 g/m*3 14.8 C 0 km/h
59 20-09-2010 11:41:01 15.3 C 6.66 g/m*3 15.3 C 0 km/h
60 20-09-2010 11:53:02 15.9 C 6.77 g/m*3 15.9 C 0 km/h
61 20-09-2010 12:05:02 16.1 C 6.31 g/m*3 16.1 C 0 km/h
62 20-09-2010 12:17:02 15.9 C 6.5 g/m*3 15.9 C 0 km/h
63 20-09-2010 12:29:03 16.1 C 6.31 g/m*3 16.1 C 0 km/h
64 20-09-2010 12:41:02 16.4 C 6.42 g/m*3 16.4 C 0 km/h
65 20-09-2010 12:53:02 16.8 C 6.15 g/m*3 16.8 C 0 km/h
66 20-09-2010 13:05:01 17.1 C 6.11 g/m*3 17.1 C 0 km/h
67 20-09-2010 13:17:02 17.5 C 6.26 g/m*3 17.5 C 0 km/h
68 20-09-2010 13:29:02 18.1 C 6.33 g/m*3 18.1 C 0 km/h
69 20-09-2010 13:41:02 18.5 C 6.01 g/m*3 18.5 C 0 km/h
70 20-09-2010 13:53:02 18.9 C 5.83 g/m*3 18.9 C 0 km/h
71 20-09-2010 14:05:03 19.5 C 6.04 g/m*3 19.5 C 0 km/h
72 20-09-2010 14:17:02 19.7 C 5.94 g/m*3 19.7 C 0 km/h
73 20-09-2010 14:29:02 20.1 C 5.91 g/m*3 20.1 C 0 km/h
74 20-09-2010 14:41:02 20.5 C 5.69 g/m*3 20.5 C 0 km/h
75 20-09-2010 14:53:01 20.3 C 5.45 g/m*3 20.3 C 0 km/h
Sensor: Nr:Datum:Temp:Abs-Feuchte:Windchill:Wind:
Aussen-T/F 76 20-09-2010 15:05:02 20.8 C 5.79 g/m*3 20.8 C 0 km/h
77 20-09-2010 15:17:01 21.4 C 5.81 g/m*3 21.4 C 0 km/h
78 20-09-2010 15:29:01 21.5 C 5.85 g/m*3 21.5 C 0 km/h
79 20-09-2010 15:41:01 21.6 C 5.88 g/m*3 21.6 C 0 km/h
80 20-09-2010 15:53:01 21.8 C 5.95 g/m*3 21.8 C 0 km/h
81 20-09-2010 16:05:01 22.2 C 6.48 g/m*3 22.2 C 0 km/h
82 20-09-2010 16:17:02 22.6 C 6.23 g/m*3 22.6 C 0 km/h
83 20-09-2010 16:29:02 22.8 C 6.1 g/m*3 22.8 C 0 km/h
84 20-09-2010 16:41:01 22.6 C 6.23 g/m*3 22.6 C 0 km/h
85 20-09-2010 16:53:01 22.1 C 6.05 g/m*3 22.1 C 0 km/h
86 20-09-2010 17:05:01 22.2 C 6.28 g/m*3 22.2 C 0 km/h
87 20-09-2010 17:17:02 22.1 C 5.86 g/m*3 22.1 C 0 km/h
88 20-09-2010 17:29:02 22.3 C 6.32 g/m*3 22.3 C 0 km/h
89 20-09-2010 17:41:01 22.1 C 5.86 g/m*3 22.1 C 0 km/h
90 20-09-2010 17:53:02 22.7 C 6.26 g/m*3 22.7 C 0 km/h
91 20-09-2010 18:05:02 22.7 C 6.47 g/m*3 22.7 C 0 km/h
92 20-09-2010 18:17:02 22.2 C 6.28 g/m*3 22.2 C 0 km/h
93 20-09-2010 18:29:02 21.6 C 6.64 g/m*3 21.6 C 0 km/h
94 20-09-2010 18:41:02 20.6 C 6.8 g/m*3 20.6 C 0 km/h
95 20-09-2010 18:53:02 19.4 C 7.01 g/m*3 19.4 C 0 km/h
96 20-09-2010 19:05:01 18.9 C 6.97 g/m*3 18.9 C 0 km/h
97 20-09-2010 19:17:01 18.1 C 7.11 g/m*3 18.1 C 0 km/h
98 20-09-2010 19:29:01 17.5 C 7.31 g/m*3 17.5 C 0 km/h
99 20-09-2010 19:41:02 16.8 C 7.29 g/m*3 16.8 C 0 km/h
100 20-09-2010 19:53:02 16.2 C 7.17 g/m*3 16.2 C 0 km/h
Sensor: Nr:Datum:Temp:Abs-Feuchte:Windchill:Wind:
Aussen-T/F 101 20-09-2010 20:05:02 15.9 C 7.31 g/m*3 15.9 C 0 km/h
102 20-09-2010 20:17:02 15.6 C 7.45 g/m*3 15.6 C 0 km/h
103 20-09-2010 20:29:02 15.3 C 7.57 g/m*3 15.3 C 0 km/h
104 20-09-2010 20:41:02 15.1 C 7.74 g/m*3 15.1 C 0 km/h
105 20-09-2010 20:53:02 14.8 C 7.6 g/m*3 14.8 C 0 km/h
106 20-09-2010 21:05:02 14.7 C 7.68 g/m*3 14.7 C 0 km/h
107 20-09-2010 21:17:02 14.4 C 7.66 g/m*3 14.4 C 0 km/h
108 20-09-2010 21:29:02 14.2 C 7.69 g/m*3 14.2 C 0 km/h
109 20-09-2010 21:41:02 14 C 7.72 g/m*3 14 C 0 km/h
110 20-09-2010 21:53:02 13.7 C 7.82 g/m*3 13.7 C 0 km/h
111 20-09-2010 22:06:02 13.6 C 8 g/m*3 13.6 C 0 km/h
112 20-09-2010 22:18:02 13.5 C 7.95 g/m*3 13.5 C 0 km/h
113 20-09-2010 22:30:02 13.5 C 8.07 g/m*3 13.5 C 0 km/h
114 20-09-2010 22:42:02 12.9 C 8.11 g/m*3 12.9 C 0 km/h
115 20-09-2010 22:54:02 12.6 C 8.19 g/m*3 12.6 C 0 km/h
116 20-09-2010 23:06:02 12.6 C 8.19 g/m*3 12.6 C 0 km/h
117 20-09-2010 23:18:02 12.5 C 8.14 g/m*3 12.5 C 0 km/h
118 20-09-2010 23:30:02 12.3 C 8.04 g/m*3 12.3 C 0 km/h
119 20-09-2010 23:42:02 12.1 C 7.94 g/m*3 12.1 C 0 km/h
120 20-09-2010 23:54:02 11.9 C 7.94 g/m*3 11.9 C 0 km/h
121 21-09-2010 00:06:03 11.8 C 7.89 g/m*3 11.8 C 0 km/h
122 21-09-2010 00:18:03 11.6 C 7.9 g/m*3 11.6 C 0 km/h
123 21-09-2010 00:30:03 11.5 C 7.85 g/m*3 11.5 C 0 km/h
124 21-09-2010 00:42:03 11.4 C 7.9 g/m*3 11.4 C 0 km/h
125 21-09-2010 00:54:03 11.3 C 7.85 g/m*3 11.3 C 0 km/h
Sensor: Nr:Datum:Temp:Abs-Feuchte:Windchill:Wind:
Aussen-T/F 126 21-09-2010 01:06:03 11.2 C 7.8 g/m*3 11.2 C 0 km/h
127 21-09-2010 01:18:03 11.1 C 7.86 g/m*3 11.1 C 0 km/h
128 21-09-2010 01:30:03 10.9 C 7.86 g/m*3 10.9 C 0 km/h
129 21-09-2010 01:42:03 10.8 C 7.81 g/m*3 10.8 C 0 km/h
130 21-09-2010 01:54:03 10.5 C 7.66 g/m*3 10.5 C 0 km/h
131 21-09-2010 02:06:03 10.4 C 7.71 g/m*3 10.4 C 0 km/h
132 21-09-2010 02:18:03 10.4 C 7.71 g/m*3 10.4 C 0 km/h
133 21-09-2010 02:30:03 10.3 C 7.76 g/m*3 10.3 C 0 km/h
134 21-09-2010 02:42:03 10.1 C 7.66 g/m*3 10.1 C 0 km/h
135 21-09-2010 02:54:03 10 C 7.61 g/m*3 10 C 0 km/h
136 21-09-2010 03:06:03 10 C 7.71 g/m*3 10 C 0 km/h
137 21-09-2010 03:18:03 9.9 C 7.75 g/m*3 9.9 C 0 km/h
138 21-09-2010 03:30:03 9.8 C 7.79 g/m*3 9.8 C 0 km/h
139 21-09-2010 03:42:03 9.5 C 7.65 g/m*3 9.5 C 0 km/h
140 21-09-2010 03:54:03 9.5 C 7.65 g/m*3 9.5 C 0 km/h
141 21-09-2010 04:06:04 9.4 C 7.6 g/m*3 9.4 C 0 km/h
142 21-09-2010 04:18:04 9.3 C 7.55 g/m*3 9.3 C 0 km/h
143 21-09-2010 04:30:04 9.2 C 7.5 g/m*3 9.2 C 0 km/h
144 21-09-2010 04:42:04 9.2 C 7.5 g/m*3 9.2 C 0 km/h
145 21-09-2010 04:54:04 9 C 7.41 g/m*3 9 C 0 km/h
146 21-09-2010 05:06:04 9 C 7.49 g/m*3 9 C 0 km/h
147 21-09-2010 05:18:04 8.8 C 7.49 g/m*3 8.8 C 0 km/h
148 21-09-2010 05:30:04 8.8 C 7.49 g/m*3 8.8 C 0 km/h
149 21-09-2010 05:42:04 8.7 C 7.44 g/m*3 8.7 C 0 km/h
150 21-09-2010 05:54:04 8.6 C 7.39 g/m*3 8.6 C 0 km/h
Sensor: Nr:Datum:Temp:Abs-Feuchte:Windchill:Wind:
Aussen-T/F 151 21-09-2010 06:06:04 8.5 C 7.43 g/m*3 8.5 C 0 km/h
152 21-09-2010 06:18:04 8.4 C 7.38 g/m*3 8.4 C 0 km/h
153 21-09-2010 06:30:04 8.3 C 7.33 g/m*3 8.3 C 0 km/h
154 21-09-2010 06:42:04 8.2 C 7.29 g/m*3 8.2 C 0 km/h
155 21-09-2010 06:54:04 8.3 C 7.42 g/m*3 8.3 C 0 km/h
156 21-09-2010 07:06:02 8.2 C 7.37 g/m*3 8.2 C 0 km/h
157 21-09-2010 07:18:02 8.2 C 7.37 g/m*3 8.2 C 0 km/h
158 21-09-2010 07:30:02 8.1 C 7.32 g/m*3 8.1 C 0 km/h
159 21-09-2010 07:42:03 8.1 C 7.32 g/m*3 8.1 C 0 km/h
160 21-09-2010 07:54:02 8.1 C 7.32 g/m*3 8.1 C 0 km/h
161 21-09-2010 08:06:01 8 C 7.36 g/m*3 8 C 0 km/h
162 21-09-2010 08:18:02 8.1 C 7.41 g/m*3 8.1 C 0 km/h
163 21-09-2010 08:30:02 8.2 C 7.54 g/m*3 8.2 C 0 km/h
164 21-09-2010 08:42:02 8.4 C 7.63 g/m*3 8.4 C 0 km/h
165 21-09-2010 08:54:02 8.6 C 7.73 g/m*3 8.6 C 0 km/h
166 21-09-2010 09:06:02 8.7 C 7.78 g/m*3 8.7 C 0 km/h
167 21-09-2010 09:18:02 8.9 C 7.88 g/m*3 8.9 C 0 km/h
168 21-09-2010 09:30:02 9.3 C 8 g/m*3 9.3 C 0 km/h
169 21-09-2010 09:42:02 9.5 C 8.1 g/m*3 9.5 C 0 km/h
170 21-09-2010 09:54:01 9.5 C 8.1 g/m*3 9.5 C 0 km/h
171 21-09-2010 10:06:02 9.9 C 8.31 g/m*3 9.9 C 0 km/h
172 21-09-2010 10:18:01 10.5 C 8.53 g/m*3 10.5 C 0 km/h
173 21-09-2010 10:30:01 11.1 C 8.76 g/m*3 11.1 C 0 km/h
174 21-09-2010 10:42:01 11.7 C 8.99 g/m*3 11.7 C 0 km/h
175 21-09-2010 10:54:01 12.4 C 8.96 g/m*3 12.4 C 0 km/h
Sensor: Nr:Datum:Temp:Abs-Feuchte:Windchill:Wind:
Aussen-T/F 176 21-09-2010 11:06:01 13 C 8.51 g/m*3 13 C 0 km/h
177 21-09-2010 11:18:02 13.6 C 8.59 g/m*3 13.6 C 0 km/h
178 21-09-2010 11:30:02 14 C 8.56 g/m*3 14 C 0 km/h
179 21-09-2010 11:42:01 14.7 C 8.81 g/m*3 14.7 C 0 km/h
180 21-09-2010 11:54:03 15.3 C 8.75 g/m*3 15.3 C 0 km/h
181 21-09-2010 12:06:02 15.8 C 8.75 g/m*3 15.8 C 0 km/h
182 21-09-2010 12:18:02 16.5 C 8.85 g/m*3 16.5 C 0 km/h
183 21-09-2010 12:30:03 16.5 C 9.13 g/m*3 16.5 C 0 km/h
184 21-09-2010 12:42:02 16 C 8.86 g/m*3 16 C 0 km/h
185 21-09-2010 12:54:02 15.9 C 9.34 g/m*3 15.9 C 0 km/h
186 21-09-2010 13:06:02 16.4 C 9.77 g/m*3 16.4 C 0 km/h
187 21-09-2010 13:18:02 16.6 C 9.46 g/m*3 16.6 C 0 km/h
188 21-09-2010 13:30:02 16.8 C 9.72 g/m*3 16.8 C 0 km/h
189 21-09-2010 13:42:02 17.3 C 9.87 g/m*3 17.3 C 0 km/h
190 21-09-2010 13:54:02 18 C 9.37 g/m*3 18 C 0 km/h
191 21-09-2010 14:06:02 17.5 C 9.54 g/m*3 17.5 C 0 km/h
192 21-09-2010 14:18:01 17.4 C 9.63 g/m*3 17.4 C 0 km/h
193 21-09-2010 14:30:01 17.2 C 9.52 g/m*3 17.2 C 0 km/h
194 21-09-2010 14:42:02 17.5 C 9.54 g/m*3 17.5 C 0 km/h
195 21-09-2010 14:54:02 19.5 C 9.06 g/m*3 19.5 C 0 km/h
196 21-09-2010 15:06:02 21.3 C 8.76 g/m*3 21.3 C 0 km/h
197 21-09-2010 15:18:02 22.6 C 8.44 g/m*3 22.6 C 0 km/h
198 21-09-2010 15:30:02 23.3 C 7.95 g/m*3 23.3 C 0 km/h
199 21-09-2010 15:42:02 23.9 C 7.79 g/m*3 23.9 C 0 km/h
200 21-09-2010 15:54:02 24.5 C 7.83 g/m*3 24.5 C 0 km/h
Sensor: Nr:Datum:Temp:Abs-Feuchte:Windchill:Wind:
Aussen-T/F 201 21-09-2010 16:06:02 25 C 7.6 g/m*3 25 C 0 km/h
202 21-09-2010 16:18:02 25.2 C 7.45 g/m*3 25.2 C 0 km/h
203 21-09-2010 16:30:02 25.2 C 7.68 g/m*3 25.2 C 0 km/h
204 21-09-2010 16:42:02 25.1 C 7.87 g/m*3 25.1 C 0 km/h
205 21-09-2010 16:54:02 25.3 C 7.49 g/m*3 25.3 C 0 km/h
206 21-09-2010 17:06:02 25.4 C 7.53 g/m*3 25.4 C 0 km/h
207 21-09-2010 17:18:02 25.5 C 7.81 g/m*3 25.5 C 0 km/h
208 21-09-2010 17:30:02 24.5 C 7.39 g/m*3 24.5 C 0 km/h
209 21-09-2010 17:42:02 24.1 C 7.44 g/m*3 24.1 C 0 km/h
210 21-09-2010 17:54:02 23.5 C 7.61 g/m*3 23.5 C 0 km/h
211 21-09-2010 18:06:02 23.2 C 7.69 g/m*3 23.2 C 0 km/h
212 21-09-2010 18:18:02 22.7 C 7.88 g/m*3 22.7 C 0 km/h
213 21-09-2010 18:30:02 22.2 C 7.85 g/m*3 22.2 C 0 km/h
214 21-09-2010 18:42:02 21.7 C 8.01 g/m*3 21.7 C 0 km/h
215 21-09-2010 18:54:02 21.1 C 7.92 g/m*3 21.1 C 0 km/h
216 21-09-2010 19:06:01 20.2 C 8.04 g/m*3 20.2 C 0 km/h
217 21-09-2010 19:18:02 19.5 C 8.22 g/m*3 19.5 C 0 km/h
218 21-09-2010 19:30:02 18.5 C 8.39 g/m*3 18.5 C 0 km/h
219 21-09-2010 19:42:02 17.8 C 8.5 g/m*3 17.8 C 0 km/h
220 21-09-2010 19:54:02 17.2 C 8.49 g/m*3 17.2 C 0 km/h
221 21-09-2010 20:06:03 16.8 C 8.58 g/m*3 16.8 C 0 km/h
222 21-09-2010 20:18:02 16.5 C 8.43 g/m*3 16.5 C 0 km/h
223 21-09-2010 20:30:02 16.3 C 8.46 g/m*3 16.3 C 0 km/h
224 21-09-2010 20:42:02 16.1 C 8.5 g/m*3 16.1 C 0 km/h
225 21-09-2010 20:54:02 15.8 C 8.62 g/m*3 15.8 C 0 km/h
Sensor: Nr:Datum:Temp:Abs-Feuchte:Windchill:Wind:
Aussen-T/F 226 21-09-2010 21:06:02 15.6 C 8.51 g/m*3 15.6 C 0 km/h
227 21-09-2010 21:18:01 15.4 C 8.41 g/m*3 15.4 C 0 km/h
228 21-09-2010 21:30:01 15.1 C 8.51 g/m*3 15.1 C 0 km/h
229 21-09-2010 21:42:02 14.7 C 8.56 g/m*3 14.7 C 0 km/h
230 21-09-2010 21:54:02 14.5 C 8.46 g/m*3 14.5 C 0 km/h
231 21-09-2010 22:06:02 14.4 C 8.53 g/m*3 14.4 C 0 km/h
232 21-09-2010 22:18:01 14.1 C 8.5 g/m*3 14.1 C 0 km/h
233 21-09-2010 22:30:01 13.9 C 8.51 g/m*3 13.9 C 0 km/h
234 21-09-2010 22:42:01 13.6 C 8.47 g/m*3 13.6 C 0 km/h
235 21-09-2010 22:54:01 13.5 C 8.54 g/m*3 13.5 C 0 km/h
236 21-09-2010 23:06:01 13.2 C 8.38 g/m*3 13.2 C 0 km/h
237 21-09-2010 23:18:01 13.1 C 8.44 g/m*3 13.1 C 0 km/h
238 21-09-2010 23:30:01 13 C 8.51 g/m*3 13 C 0 km/h
239 21-09-2010 23:42:01 12.9 C 8.68 g/m*3 12.9 C 0 km/h
240 21-09-2010 23:54:01 12.7 C 8.68 g/m*3 12.7 C 0 km/h
241 22-09-2010 00:06:01 12.5 C 8.69 g/m*3 12.5 C 0 km/h
242 22-09-2010 00:18:01 12.3 C 8.58 g/m*3 12.3 C 0 km/h
243 22-09-2010 00:30:01 12.2 C 8.52 g/m*3 12.2 C 0 km/h
244 22-09-2010 00:42:01 12.1 C 8.47 g/m*3 12.1 C 0 km/h
245 22-09-2010 00:54:01 11.9 C 8.47 g/m*3 11.9 C 0 km/h
246 22-09-2010 01:06:02 11.8 C 8.53 g/m*3 11.8 C 0 km/h
247 22-09-2010 01:18:02 11.6 C 8.42 g/m*3 11.6 C 0 km/h
248 22-09-2010 01:30:02 11.5 C 8.47 g/m*3 11.5 C 0 km/h
249 22-09-2010 01:42:02 11.3 C 8.26 g/m*3 11.3 C 0 km/h
250 22-09-2010 01:54:02 11.3 C 8.36 g/m*3 11.3 C 0 km/h
Sensor: Nr:Datum:Temp:Abs-Feuchte:Windchill:Wind:
Aussen-T/F 251 22-09-2010 02:06:02 11 C 8.21 g/m*3 11 C 0 km/h
252 22-09-2010 02:18:02 10.9 C 8.16 g/m*3 10.9 C 0 km/h
253 22-09-2010 02:30:02 10.8 C 8.2 g/m*3 10.8 C 0 km/h
254 22-09-2010 02:42:02 10.7 C 8.15 g/m*3 10.7 C 0 km/h
255 22-09-2010 02:54:02 10.5 C 8.05 g/m*3 10.5 C 0 km/h
256 22-09-2010 03:06:02 10.4 C 8 g/m*3 10.4 C 0 km/h
257 22-09-2010 03:18:02 10.4 C 8 g/m*3 10.4 C 0 km/h
258 22-09-2010 03:30:02 10.3 C 8.04 g/m*3 10.3 C 0 km/h
259 22-09-2010 03:42:02 10.1 C 7.94 g/m*3 10.1 C 0 km/h
260 22-09-2010 03:54:02 9.9 C 8.03 g/m*3 9.9 C 0 km/h
261 22-09-2010 04:06:02 9.9 C 8.03 g/m*3 9.9 C 0 km/h
262 22-09-2010 04:18:02 9.7 C 7.93 g/m*3 9.7 C 0 km/h
263 22-09-2010 04:30:02 9.6 C 7.79 g/m*3 9.6 C 0 km/h
264 22-09-2010 04:42:02 9.6 C 7.88 g/m*3 9.6 C 0 km/h
265 22-09-2010 04:54:02 9.8 C 8.07 g/m*3 9.8 C 0 km/h
266 22-09-2010 05:06:02 9.8 C 8.07 g/m*3 9.8 C 0 km/h
267 22-09-2010 05:18:02 9.9 C 8.22 g/m*3 9.9 C 0 km/h
268 22-09-2010 05:30:03 9.9 C 8.22 g/m*3 9.9 C 0 km/h
269 22-09-2010 05:42:03 9.9 C 8.22 g/m*3 9.9 C 0 km/h
270 22-09-2010 05:54:03 9.7 C 8.02 g/m*3 9.7 C 0 km/h
271 22-09-2010 06:06:03 9.8 C 8.16 g/m*3 9.8 C 0 km/h
272 22-09-2010 06:18:03 9.8 C 8.16 g/m*3 9.8 C 0 km/h
273 22-09-2010 06:30:03 9.8 C 8.16 g/m*3 9.8 C 0 km/h
274 22-09-2010 06:42:03 9.7 C 8.11 g/m*3 9.7 C 0 km/h
275 22-09-2010 06:54:03 9.8 C 8.16 g/m*3 9.8 C 0 km/h
Sensor: Nr:Datum:Temp:Abs-Feuchte:Windchill:Wind:
Aussen-T/F 276 22-09-2010 07:06:01 9.8 C 8.16 g/m*3 9.8 C 0 km/h
277 22-09-2010 07:18:02 9.8 C 8.16 g/m*3 9.8 C 0 km/h
278 22-09-2010 07:30:02 9.6 C 8.06 g/m*3 9.6 C 0 km/h
279 22-09-2010 07:42:01 9.3 C 7.91 g/m*3 9.3 C 0 km/h
280 22-09-2010 07:54:01 9.3 C 7.91 g/m*3 9.3 C 0 km/h
281 22-09-2010 08:06:01 9.3 C 7.91 g/m*3 9.3 C 0 km/h
282 22-09-2010 08:18:02 9.3 C 7.91 g/m*3 9.3 C 0 km/h
283 22-09-2010 08:30:02 9.6 C 8.15 g/m*3 9.6 C 0 km/h
284 22-09-2010 08:42:01 9.3 C 7.91 g/m*3 9.3 C 0 km/h
285 22-09-2010 08:54:02 9.3 C 7.91 g/m*3 9.3 C 0 km/h
286 22-09-2010 09:06:01 9.6 C 8.06 g/m*3 9.6 C 0 km/h
287 22-09-2010 09:18:02 9.8 C 8.16 g/m*3 9.8 C 0 km/h
288 22-09-2010 09:30:02 10.2 C 8.09 g/m*3 10.2 C 0 km/h
289 22-09-2010 09:42:01 10.3 C 8.04 g/m*3 10.3 C 0 km/h
290 22-09-2010 09:54:02 11 C 8.41 g/m*3 11 C 0 km/h
291 22-09-2010 10:06:01 11.8 C 8.63 g/m*3 11.8 C 0 km/h
292 22-09-2010 10:18:01 12.4 C 8.74 g/m*3 12.4 C 0 km/h
293 22-09-2010 10:30:01 12 C 8.31 g/m*3 12 C 0 km/h
294 22-09-2010 10:42:02 12.7 C 8.79 g/m*3 12.7 C 0 km/h
295 22-09-2010 10:54:01 13.2 C 8.73 g/m*3 13.2 C 0 km/h
296 22-09-2010 11:06:02 12.9 C 8.68 g/m*3 12.9 C 0 km/h
297 22-09-2010 11:18:01 13.1 C 8.9 g/m*3 13.1 C 0 km/h
298 22-09-2010 11:30:01 13.6 C 9.3 g/m*3 13.6 C 0 km/h
299 22-09-2010 11:42:02 14.2 C 9.52 g/m*3 14.2 C 0 km/h
300 22-09-2010 11:54:01 15.1 C 9.55 g/m*3 15.1 C 0 km/h
Sensor: Nr:Datum:Temp:Abs-Feuchte:Windchill:Wind:
Aussen-T/F 301 22-09-2010 12:06:02 15.6 C 9.71 g/m*3 15.6 C 0 km/h
302 22-09-2010 12:18:01 16 C 9.67 g/m*3 16 C 0 km/h
303 22-09-2010 12:30:01 16.5 C 9.97 g/m*3 16.5 C 0 km/h
304 22-09-2010 12:42:01 17.1 C 10.19 g/m*3 17.1 C 0 km/h
305 22-09-2010 12:54:01 17.5 C 10.29 g/m*3 17.5 C 0 km/h
306 22-09-2010 13:06:01 18.4 C 9.91 g/m*3 18.4 C 0 km/h
307 22-09-2010 13:18:02 19.1 C 9.84 g/m*3 19.1 C 0 km/h
308 22-09-2010 13:30:02 19.7 C 10.19 g/m*3 19.7 C 0 km/h
309 22-09-2010 13:42:01 20.4 C 10.26 g/m*3 20.4 C 0 km/h
310 22-09-2010 13:54:01 21.2 C 10.19 g/m*3 21.2 C 0 km/h
311 22-09-2010 14:06:01 21.8 C 10.36 g/m*3 21.8 C 0 km/h
312 22-09-2010 14:18:02 22.2 C 10.01 g/m*3 22.2 C 0 km/h
313 22-09-2010 14:30:02 22.9 C 10.22 g/m*3 22.9 C 0 km/h
314 22-09-2010 14:42:01 23.4 C 9.88 g/m*3 23.4 C 0 km/h
315 22-09-2010 14:54:02 24 C 9.79 g/m*3 24 C 0 km/h
316 22-09-2010 15:06:01 24.2 C 9.9 g/m*3 24.2 C 0 km/h
317 22-09-2010 15:18:01 24.1 C 9.63 g/m*3 24.1 C 0 km/h
318 22-09-2010 15:30:01 24.9 C 9.61 g/m*3 24.9 C 0 km/h
319 22-09-2010 15:42:01 25.6 C 8.81 g/m*3 25.6 C 0 km/h
320 22-09-2010 15:54:01 26.5 C 8.26 g/m*3 26.5 C 0 km/h
321 22-09-2010 16:06:01 26.9 C 8.7 g/m*3 26.9 C 0 km/h
322 22-09-2010 16:18:01 27.1 C 8.8 g/m*3 27.1 C 0 km/h
323 22-09-2010 16:30:01 27.4 C 8.68 g/m*3 27.4 C 0 km/h
324 22-09-2010 16:42:02 27.6 C 8.51 g/m*3 27.6 C 0 km/h
325 22-09-2010 16:54:01 27.6 C 8.25 g/m*3 27.6 C 0 km/h
Sensor: Nr:Datum:Temp:Abs-Feuchte:Windchill:Wind:
Aussen-T/F 326 22-09-2010 17:06:02 27.3 C 7.85 g/m*3 27.3 C 0 km/h
327 22-09-2010 17:18:01 27.4 C 8.16 g/m*3 27.4 C 0 km/h
328 22-09-2010 17:30:01 27.2 C 8.07 g/m*3 27.2 C 0 km/h
329 22-09-2010 17:42:01 26.9 C 7.93 g/m*3 26.9 C 0 km/h
330 22-09-2010 17:54:01 26.5 C 8.76 g/m*3 26.5 C 0 km/h
331 22-09-2010 18:06:02 26.1 C 8.81 g/m*3 26.1 C 0 km/h
332 22-09-2010 18:18:01 25.6 C 9.05 g/m*3 25.6 C 0 km/h
333 22-09-2010 18:30:01 25.3 C 9.36 g/m*3 25.3 C 0 km/h
334 22-09-2010 18:42:01 24.1 C 8.97 g/m*3 24.1 C 0 km/h
335 22-09-2010 18:54:01 23.3 C 9.2 g/m*3 23.3 C 0 km/h
336 22-09-2010 19:06:01 22.5 C 9.19 g/m*3 22.5 C 0 km/h
337 22-09-2010 19:18:02 21.8 C 9.4 g/m*3 21.8 C 0 km/h
338 22-09-2010 19:30:02 20.6 C 9.31 g/m*3 20.6 C 0 km/h
339 22-09-2010 19:42:01 20 C 8.99 g/m*3 20 C 0 km/h
340 22-09-2010 19:54:01 19.5 C 9.06 g/m*3 19.5 C 0 km/h
341 22-09-2010 20:06:01 19 C 9.13 g/m*3 19 C 0 km/h
342 22-09-2010 20:18:02 18.7 C 9.13 g/m*3 18.7 C 0 km/h
343 22-09-2010 20:30:02 18.5 C 9.02 g/m*3 18.5 C 0 km/h
344 22-09-2010 20:42:01 18.4 C 9.12 g/m*3 18.4 C 0 km/h
345 22-09-2010 20:54:02 18.1 C 9.12 g/m*3 18.1 C 0 km/h
346 22-09-2010 21:06:01 17.9 C 9.31 g/m*3 17.9 C 0 km/h
347 22-09-2010 21:18:01 17.6 C 9.45 g/m*3 17.6 C 0 km/h
348 22-09-2010 21:30:01 17.5 C 9.24 g/m*3 17.5 C 0 km/h
349 22-09-2010 21:42:01 17.3 C 9.28 g/m*3 17.3 C 0 km/h
350 22-09-2010 21:54:01 17 C 9.26 g/m*3 17 C 0 km/h
Sensor: Nr:Datum:Temp:Abs-Feuchte:Windchill:Wind:
Aussen-T/F 351 22-09-2010 22:08:02 16.8 C 9.29 g/m*3 16.8 C 0 km/h
352 22-09-2010 22:20:02 16.4 C 9.35 g/m*3 16.4 C 0 km/h
353 22-09-2010 22:32:02 16.1 C 9.32 g/m*3 16.1 C 0 km/h
354 22-09-2010 22:44:02 15.9 C 9.21 g/m*3 15.9 C 0 km/h
355 22-09-2010 22:56:02 15.7 C 9.1 g/m*3 15.7 C 0 km/h
356 22-09-2010 23:08:02 15.4 C 8.8 g/m*3 15.4 C 0 km/h
357 22-09-2010 23:20:02 15.1 C 8.77 g/m*3 15.1 C 0 km/h
358 22-09-2010 23:32:02 14.9 C 8.79 g/m*3 14.9 C 0 km/h
359 22-09-2010 23:44:02 14.7 C 8.81 g/m*3 14.7 C 0 km/h
360 22-09-2010 23:56:02 14.5 C 8.71 g/m*3 14.5 C 0 km/h
361 23-09-2010 00:08:02 14.4 C 8.53 g/m*3 14.4 C 0 km/h
362 23-09-2010 00:20:02 14.2 C 8.67 g/m*3 14.2 C 0 km/h
363 23-09-2010 00:32:02 14 C 8.56 g/m*3 14 C 0 km/h
364 23-09-2010 00:44:02 13.8 C 8.7 g/m*3 13.8 C 0 km/h
365 23-09-2010 00:56:02 13.7 C 8.76 g/m*3 13.7 C 0 km/h
366 23-09-2010 01:08:02 13.5 C 8.77 g/m*3 13.5 C 0 km/h
367 23-09-2010 01:20:02 13.4 C 8.72 g/m*3 13.4 C 0 km/h
368 23-09-2010 01:32:02 13.2 C 8.73 g/m*3 13.2 C 0 km/h
369 23-09-2010 01:44:02 13.1 C 8.67 g/m*3 13.1 C 0 km/h
370 23-09-2010 01:56:03 12.9 C 8.68 g/m*3 12.9 C 0 km/h
371 23-09-2010 02:08:03 12.8 C 8.74 g/m*3 12.8 C 0 km/h
372 23-09-2010 02:20:03 12.6 C 8.74 g/m*3 12.6 C 0 km/h
373 23-09-2010 02:32:03 12.4 C 8.74 g/m*3 12.4 C 0 km/h
374 23-09-2010 02:44:03 12.3 C 8.69 g/m*3 12.3 C 0 km/h
375 23-09-2010 02:56:03 12.1 C 8.58 g/m*3 12.1 C 0 km/h
Sensor: Nr:Datum:Temp:Abs-Feuchte:Windchill:Wind:
Aussen-T/F 376 23-09-2010 03:08:03 12 C 8.53 g/m*3 12 C 0 km/h
377 23-09-2010 03:20:03 11.8 C 8.53 g/m*3 11.8 C 0 km/h
378 23-09-2010 03:32:03 11.8 C 8.53 g/m*3 11.8 C 0 km/h
379 23-09-2010 03:44:03 11.8 C 8.63 g/m*3 11.8 C 0 km/h
380 23-09-2010 03:56:03 11.6 C 8.63 g/m*3 11.6 C 0 km/h
381 23-09-2010 04:08:03 11.4 C 8.52 g/m*3 11.4 C 0 km/h
382 23-09-2010 04:20:03 11.2 C 8.41 g/m*3 11.2 C 0 km/h
383 23-09-2010 04:32:03 11.2 C 8.41 g/m*3 11.2 C 0 km/h
384 23-09-2010 04:44:03 11 C 8.31 g/m*3 11 C 0 km/h
385 23-09-2010 04:56:03 11 C 8.31 g/m*3 11 C 0 km/h
386 23-09-2010 05:08:03 10.9 C 8.36 g/m*3 10.9 C 0 km/h
387 23-09-2010 05:20:03 10.7 C 8.25 g/m*3 10.7 C 0 km/h
388 23-09-2010 05:32:03 10.6 C 8.2 g/m*3 10.6 C 0 km/h
389 23-09-2010 05:44:03 10.5 C 8.15 g/m*3 10.5 C 0 km/h
390 23-09-2010 05:56:03 10.5 C 8.15 g/m*3 10.5 C 0 km/h
391 23-09-2010 06:08:03 10.4 C 8.1 g/m*3 10.4 C 0 km/h
392 23-09-2010 06:20:04 10.5 C 8.24 g/m*3 10.5 C 0 km/h
393 23-09-2010 06:32:04 10.6 C 8.3 g/m*3 10.6 C 0 km/h
394 23-09-2010 06:44:04 10.4 C 8.19 g/m*3 10.4 C 0 km/h
395 23-09-2010 06:56:04 10.4 C 8.19 g/m*3 10.4 C 0 km/h
396 23-09-2010 07:08:02 10.5 C 8.24 g/m*3 10.5 C 0 km/h
397 23-09-2010 07:20:01 10.4 C 8.19 g/m*3 10.4 C 0 km/h
398 23-09-2010 07:32:02 10.5 C 8.24 g/m*3 10.5 C 0 km/h
399 23-09-2010 07:44:02 10.6 C 8.3 g/m*3 10.6 C 0 km/h
400 23-09-2010 07:56:02 10.6 C 8.3 g/m*3 10.6 C 0 km/h
Sensor: Nr:Datum:Temp:Abs-Feuchte:Windchill:Wind:
Aussen-T/F 401 23-09-2010 08:08:02 10.6 C 8.3 g/m*3 10.6 C 0 km/h
402 23-09-2010 08:20:01 10.7 C 8.35 g/m*3 10.7 C 0 km/h
403 23-09-2010 08:32:02 10.8 C 8.4 g/m*3 10.8 C 0 km/h
404 23-09-2010 08:44:02 11 C 8.51 g/m*3 11 C 0 km/h
405 23-09-2010 08:56:02 11.3 C 8.57 g/m*3 11.3 C 0 km/h
406 23-09-2010 09:08:01 11.4 C 8.52 g/m*3 11.4 C 0 km/h
407 23-09-2010 09:20:01 11.4 C 8.52 g/m*3 11.4 C 0 km/h
408 23-09-2010 09:32:02 11.4 C 8.52 g/m*3 11.4 C 0 km/h
409 23-09-2010 09:44:02 11.7 C 8.79 g/m*3 11.7 C 0 km/h
410 23-09-2010 09:56:02 12.3 C 8.9 g/m*3 12.3 C 0 km/h
411 23-09-2010 10:08:02 12.4 C 8.96 g/m*3 12.4 C 0 km/h
412 23-09-2010 10:20:02 12.5 C 9.02 g/m*3 12.5 C 0 km/h
413 23-09-2010 10:32:02 12.9 C 9.24 g/m*3 12.9 C 0 km/h
414 23-09-2010 10:44:02 13.3 C 9.36 g/m*3 13.3 C 0 km/h
415 23-09-2010 10:56:02 13.8 C 9.65 g/m*3 13.8 C 0 km/h
416 23-09-2010 11:08:02 14.1 C 9.71 g/m*3 14.1 C 0 km/h
417 23-09-2010 11:20:02 15 C 10 g/m*3 15 C 0 km/h
418 23-09-2010 11:32:02 15.8 C 10.23 g/m*3 15.8 C 0 km/h
419 23-09-2010 11:44:02 16.3 C 10.13 g/m*3 16.3 C 0 km/h
420 23-09-2010 11:56:02 17 C 10.27 g/m*3 17 C 0 km/h
421 23-09-2010 12:08:02 17.5 C 10.44 g/m*3 17.5 C 0 km/h
422 23-09-2010 12:20:02 18 C 10.44 g/m*3 18 C 0 km/h
423 23-09-2010 12:32:02 18.7 C 10.73 g/m*3 18.7 C 0 km/h
424 23-09-2010 12:44:02 19.2 C 10.55 g/m*3 19.2 C 0 km/h
425 23-09-2010 12:56:02 19.9 C 10.82 g/m*3 19.9 C 0 km/h
Sensor: Nr:Datum:Temp:Abs-Feuchte:Windchill:Wind:
Aussen-T/F 426 23-09-2010 13:08:02 20.5 C 11.03 g/m*3 20.5 C 0 km/h
427 23-09-2010 13:20:02 21.4 C 11.06 g/m*3 21.4 C 0 km/h
428 23-09-2010 13:32:01 22.3 C 11.26 g/m*3 22.3 C 0 km/h
429 23-09-2010 13:44:01 23.3 C 10.66 g/m*3 23.3 C 0 km/h
430 23-09-2010 13:56:02 24 C 9.14 g/m*3 24 C 0 km/h
431 23-09-2010 14:08:01 24.5 C 9.62 g/m*3 24.5 C 0 km/h
432 23-09-2010 14:20:02 23.8 C 10.11 g/m*3 23.8 C 0 km/h
433 23-09-2010 14:32:02 23.7 C 10.48 g/m*3 23.7 C 0 km/h
434 23-09-2010 14:44:02 23.8 C 10.54 g/m*3 23.8 C 0 km/h
435 23-09-2010 14:56:02 24.5 C 10.3 g/m*3 24.5 C 0 km/h
436 23-09-2010 15:08:02 25.2 C 8.85 g/m*3 25.2 C 0 km/h
437 23-09-2010 15:20:02 25.2 C 9.78 g/m*3 25.2 C 0 km/h
438 23-09-2010 15:32:02 24.8 C 9.33 g/m*3 24.8 C 0 km/h
439 23-09-2010 15:44:03 25.1 C 9.26 g/m*3 25.1 C 0 km/h
440 23-09-2010 15:56:01 24.9 C 9.61 g/m*3 24.9 C 0 km/h
441 23-09-2010 16:08:02 25.1 C 10.19 g/m*3 25.1 C 0 km/h
442 23-09-2010 16:20:01 26 C 9.74 g/m*3 26 C 0 km/h
443 23-09-2010 16:32:01 25.6 C 9.05 g/m*3 25.6 C 0 km/h
444 23-09-2010 16:44:01 24.9 C 10.07 g/m*3 24.9 C 0 km/h
445 23-09-2010 16:56:01 24.1 C 10.28 g/m*3 24.1 C 0 km/h
446 23-09-2010 17:08:01 23.7 C 10.91 g/m*3 23.7 C 0 km/h
447 23-09-2010 17:20:02 23.4 C 10.72 g/m*3 23.4 C 0 km/h
448 23-09-2010 17:32:01 23.2 C 10.81 g/m*3 23.2 C 0 km/h
449 23-09-2010 17:44:01 23.3 C 10.45 g/m*3 23.3 C 0 km/h
450 23-09-2010 17:56:02 23.8 C 10.76 g/m*3 23.8 C 0 km/h
Sensor: Nr:Datum:Temp:Abs-Feuchte:Windchill:Wind:
Aussen-T/F 451 23-09-2010 18:08:01 23.3 C 10.45 g/m*3 23.3 C 0 km/h
452 23-09-2010 18:20:02 22.6 C 10.25 g/m*3 22.6 C 0 km/h
453 23-09-2010 18:32:01 21.7 C 10.68 g/m*3 21.7 C 0 km/h
454 23-09-2010 18:44:01 21.6 C 10.81 g/m*3 21.6 C 0 km/h
455 23-09-2010 18:56:02 21.4 C 10.87 g/m*3 21.4 C 0 km/h
456 23-09-2010 19:08:02 20.9 C 10.93 g/m*3 20.9 C 0 km/h
457 23-09-2010 19:20:02 20.4 C 10.97 g/m*3 20.4 C 0 km/h
458 23-09-2010 19:32:02 19.8 C 11.1 g/m*3 19.8 C 0 km/h
459 23-09-2010 19:44:02 19.4 C 11.18 g/m*3 19.4 C 0 km/h
460 23-09-2010 19:56:02 19 C 11.08 g/m*3 19 C 0 km/h
461 23-09-2010 20:08:01 18.8 C 11.43 g/m*3 18.8 C 0 km/h
462 23-09-2010 20:20:02 18.6 C 11.3 g/m*3 18.6 C 0 km/h
463 23-09-2010 20:32:02 18.6 C 11.3 g/m*3 18.6 C 0 km/h
464 23-09-2010 20:44:02 18.4 C 11.32 g/m*3 18.4 C 0 km/h
465 23-09-2010 20:56:02 18.1 C 11.12 g/m*3 18.1 C 0 km/h
466 23-09-2010 21:08:02 18.4 C 11.48 g/m*3 18.4 C 0 km/h
467 23-09-2010 21:20:01 18.3 C 11.41 g/m*3 18.3 C 0 km/h
468 23-09-2010 21:32:02 18.4 C 11.64 g/m*3 18.4 C 0 km/h
469 23-09-2010 21:44:02 18.7 C 11.53 g/m*3 18.7 C 0 km/h
470 23-09-2010 21:57:02 18.7 C 11.37 g/m*3 18.7 C 0 km/h
471 23-09-2010 22:09:02 18.5 C 11.23 g/m*3 18.5 C 0 km/h
472 23-09-2010 22:21:02 18.5 C 11.39 g/m*3 18.5 C 0 km/h
473 23-09-2010 22:33:02 17.9 C 11.6 g/m*3 17.9 C 0 km/h
474 23-09-2010 22:45:02 17.7 C 12.52 g/m*3 17.7 C 0 km/h
475 23-09-2010 22:57:02 17.1 C 12.23 g/m*3 17.1 C 0 km/h
Sensor: Nr:Datum:Temp:Abs-Feuchte:Windchill:Wind:
Aussen-T/F 476 23-09-2010 23:09:02 16.9 C 12.37 g/m*3 16.9 C 0 km/h
477 23-09-2010 23:21:02 16.5 C 12.22 g/m*3 16.5 C 0 km/h
478 23-09-2010 23:33:02 16.4 C 12.28 g/m*3 16.4 C 0 km/h
479 23-09-2010 23:45:02 16.2 C 12.14 g/m*3 16.2 C 0 km/h
480 23-09-2010 23:57:02 16.2 C 12.27 g/m*3 16.2 C 0 km/h
481 24-09-2010 00:09:02 16 C 12.13 g/m*3 16 C 0 km/h
482 24-09-2010 00:21:02 15.9 C 12.32 g/m*3 15.9 C 0 km/h
483 24-09-2010 00:33:02 15.6 C 12.1 g/m*3 15.6 C 0 km/h
484 24-09-2010 00:45:02 15.5 C 12.16 g/m*3 15.5 C 0 km/h
485 24-09-2010 00:57:02 15.5 C 12.16 g/m*3 15.5 C 0 km/h
486 24-09-2010 01:09:02 15.5 C 12.16 g/m*3 15.5 C 0 km/h
487 24-09-2010 01:21:02 15.5 C 12.29 g/m*3 15.5 C 0 km/h
488 24-09-2010 01:33:02 15.6 C 12.37 g/m*3 15.6 C 0 km/h
489 24-09-2010 01:45:02 15.6 C 12.37 g/m*3 15.6 C 0 km/h
490 24-09-2010 01:57:03 15.5 C 12.29 g/m*3 15.5 C 0 km/h
491 24-09-2010 02:09:03 15.5 C 12.29 g/m*3 15.5 C 0 km/h
492 24-09-2010 02:21:03 15.5 C 12.29 g/m*3 15.5 C 0 km/h
493 24-09-2010 02:33:03 15.4 C 12.22 g/m*3 15.4 C 0 km/h
494 24-09-2010 02:45:03 15.3 C 12.01 g/m*3 15.3 C 0 km/h
495 24-09-2010 02:57:03 15.2 C 11.94 g/m*3 15.2 C 0 km/h
496 24-09-2010 03:09:03 15.1 C 11.87 g/m*3 15.1 C 0 km/h
497 24-09-2010 03:21:03 14.9 C 11.85 g/m*3 14.9 C 0 km/h
498 24-09-2010 03:33:03 14.9 C 11.85 g/m*3 14.9 C 0 km/h
499 24-09-2010 03:45:03 14.9 C 11.98 g/m*3 14.9 C 0 km/h
500 24-09-2010 03:57:03 14.9 C 11.98 g/m*3 14.9 C 0 km/h
Sensor: Nr:Datum:Temp:Abs-Feuchte:Windchill:Wind:
Aussen-T/F 501 24-09-2010 04:09:03 14.8 C 11.91 g/m*3 14.8 C 0 km/h
502 24-09-2010 04:21:03 14.8 C 11.91 g/m*3 14.8 C 0 km/h
503 24-09-2010 04:33:03 14.8 C 11.91 g/m*3 14.8 C 0 km/h
504 24-09-2010 04:45:03 14.8 C 11.91 g/m*3 14.8 C 0 km/h
505 24-09-2010 04:57:03 14.7 C 11.83 g/m*3 14.7 C 0 km/h
506 24-09-2010 05:09:03 14.5 C 11.69 g/m*3 14.5 C 0 km/h
507 24-09-2010 05:21:03 14.5 C 11.69 g/m*3 14.5 C 0 km/h
508 24-09-2010 05:33:03 14.5 C 11.69 g/m*3 14.5 C 0 km/h
509 24-09-2010 05:45:03 14.6 C 11.76 g/m*3 14.6 C 0 km/h
510 24-09-2010 05:57:03 14.6 C 11.76 g/m*3 14.6 C 0 km/h
511 24-09-2010 06:09:03 14.7 C 11.83 g/m*3 14.7 C 0 km/h
512 24-09-2010 06:21:04 14.7 C 11.83 g/m*3 14.7 C 0 km/h
513 24-09-2010 06:33:04 14.7 C 11.83 g/m*3 14.7 C 0 km/h
514 24-09-2010 06:45:04 14.7 C 11.83 g/m*3 14.7 C 0 km/h
515 24-09-2010 06:57:04 14.7 C 11.83 g/m*3 14.7 C 0 km/h
516 24-09-2010 07:09:04 14.5 C 11.69 g/m*3 14.5 C 0 km/h
517 24-09-2010 07:21:04 14.4 C 11.62 g/m*3 14.4 C 0 km/h
518 24-09-2010 07:33:02 14.3 C 11.55 g/m*3 14.3 C 0 km/h
519 24-09-2010 07:45:02 14.4 C 11.62 g/m*3 14.4 C 0 km/h
520 24-09-2010 07:57:02 14.4 C 11.62 g/m*3 14.4 C 0 km/h
521 24-09-2010 08:09:02 14.4 C 11.62 g/m*3 14.4 C 0 km/h
522 24-09-2010 08:21:01 14.3 C 11.55 g/m*3 14.3 C 0 km/h
523 24-09-2010 08:33:02 14.6 C 11.89 g/m*3 14.6 C 0 km/h
524 24-09-2010 08:45:02 14.8 C 12.03 g/m*3 14.8 C 0 km/h
525 24-09-2010 08:57:02 14.8 C 12.03 g/m*3 14.8 C 0 km/h
Sensor: Nr:Datum:Temp:Abs-Feuchte:Windchill:Wind:
Aussen-T/F 526 24-09-2010 09:09:01 14.8 C 12.03 g/m*3 14.8 C 0 km/h
527 24-09-2010 09:21:02 14.8 C 12.03 g/m*3 14.8 C 0 km/h
528 24-09-2010 09:33:01 14.9 C 12.11 g/m*3 14.9 C 0 km/h
529 24-09-2010 09:45:02 14.9 C 12.11 g/m*3 14.9 C 0 km/h
530 24-09-2010 09:57:02 15 C 12.05 g/m*3 15 C 0 km/h
531 24-09-2010 10:09:02 15 C 12.05 g/m*3 15 C 0 km/h
532 24-09-2010 10:21:02 14.9 C 12.11 g/m*3 14.9 C 0 km/h
533 24-09-2010 10:33:02 15 C 12.05 g/m*3 15 C 0 km/h
534 24-09-2010 10:45:01 15 C 12.05 g/m*3 15 C 0 km/h
535 24-09-2010 10:57:01 15 C 12.05 g/m*3 15 C 0 km/h
536 24-09-2010 11:09:02 15.1 C 12.13 g/m*3 15.1 C 0 km/h
537 24-09-2010 11:21:01 15.1 C 12.13 g/m*3 15.1 C 0 km/h
538 24-09-2010 11:33:01 15.4 C 12.35 g/m*3 15.4 C 0 km/h
539 24-09-2010 11:45:02 15.4 C 12.35 g/m*3 15.4 C 0 km/h
540 24-09-2010 11:57:02 15.1 C 12.13 g/m*3 15.1 C 0 km/h
541 24-09-2010 12:09:02 15.1 C 12.13 g/m*3 15.1 C 0 km/h
542 24-09-2010 12:21:02 15.1 C 12.13 g/m*3 15.1 C 0 km/h
543 24-09-2010 12:33:03 15.4 C 12.48 g/m*3 15.4 C 0 km/h
544 24-09-2010 12:45:02 15.1 C 12.13 g/m*3 15.1 C 0 km/h
545 24-09-2010 12:57:03 15 C 12.05 g/m*3 15 C 0 km/h
546 24-09-2010 13:09:02 14.8 C 11.91 g/m*3 14.8 C 0 km/h
547 24-09-2010 13:21:02 14.6 C 11.76 g/m*3 14.6 C 0 km/h
548 24-09-2010 13:33:02 14.5 C 11.69 g/m*3 14.5 C 0 km/h
549 24-09-2010 13:45:02 14.5 C 11.69 g/m*3 14.5 C 0 km/h
550 24-09-2010 13:57:02 14.4 C 11.62 g/m*3 14.4 C 0 km/h
Sensor: Nr:Datum:Temp:Abs-Feuchte:Windchill:Wind:
Aussen-T/F 551 24-09-2010 14:09:03 14.1 C 11.41 g/m*3 14.1 C 0 km/h
552 24-09-2010 14:21:02 13.8 C 11.2 g/m*3 13.8 C 0 km/h
553 24-09-2010 14:33:03 13.5 C 10.99 g/m*3 13.5 C 0 km/h
554 24-09-2010 14:45:02 13.2 C 10.79 g/m*3 13.2 C 0 km/h
555 24-09-2010 14:57:02 13.1 C 10.73 g/m*3 13.1 C 0 km/h
556 24-09-2010 15:09:02 12.9 C 10.71 g/m*3 12.9 C 0 km/h
557 24-09-2010 15:21:03 13.1 C 10.73 g/m*3 13.1 C 0 km/h
558 24-09-2010 15:33:02 13 C 10.77 g/m*3 13 C 0 km/h
559 24-09-2010 15:45:03 13.2 C 10.91 g/m*3 13.2 C 0 km/h
560 24-09-2010 15:57:03 13.2 C 10.91 g/m*3 13.2 C 0 km/h
561 24-09-2010 16:09:02 13.3 C 10.98 g/m*3 13.3 C 0 km/h
562 24-09-2010 16:21:02 13.7 C 11.25 g/m*3 13.7 C 0 km/h
563 24-09-2010 16:33:02 14 C 11.46 g/m*3 14 C 0 km/h
564 24-09-2010 16:45:02 14.1 C 11.53 g/m*3 14.1 C 0 km/h
565 24-09-2010 16:57:02 13.9 C 11.39 g/m*3 13.9 C 0 km/h
566 24-09-2010 17:09:02 13.9 C 11.39 g/m*3 13.9 C 0 km/h
567 24-09-2010 17:21:02 13.9 C 11.39 g/m*3 13.9 C 0 km/h
568 24-09-2010 17:33:02 13.4 C 10.93 g/m*3 13.4 C 0 km/h
569 24-09-2010 17:45:02 13.2 C 10.79 g/m*3 13.2 C 0 km/h
570 24-09-2010 17:57:02 13 C 10.66 g/m*3 13 C 0 km/h
571 24-09-2010 18:09:01 13.2 C 10.79 g/m*3 13.2 C 0 km/h
572 24-09-2010 18:21:01 13.3 C 10.86 g/m*3 13.3 C 0 km/h
573 24-09-2010 18:33:02 13.3 C 10.86 g/m*3 13.3 C 0 km/h
574 24-09-2010 18:45:02 13.3 C 10.86 g/m*3 13.3 C 0 km/h
575 24-09-2010 18:57:02 13.2 C 10.79 g/m*3 13.2 C 0 km/h
Sensor: Nr:Datum:Temp:Abs-Feuchte:Windchill:Wind:
Aussen-T/F 576 24-09-2010 19:09:02 13.1 C 10.73 g/m*3 13.1 C 0 km/h
577 24-09-2010 19:21:01 12.9 C 10.71 g/m*3 12.9 C 0 km/h
578 24-09-2010 19:33:02 12.8 C 10.64 g/m*3 12.8 C 0 km/h
579 24-09-2010 19:45:02 12.7 C 10.58 g/m*3 12.7 C 0 km/h
580 24-09-2010 19:57:02 12.7 C 10.58 g/m*3 12.7 C 0 km/h
581 24-09-2010 20:09:02 12.7 C 10.58 g/m*3 12.7 C 0 km/h
582 24-09-2010 20:21:01 12.7 C 10.58 g/m*3 12.7 C 0 km/h
583 24-09-2010 20:33:02 12.7 C 10.58 g/m*3 12.7 C 0 km/h
584 24-09-2010 20:45:01 12.7 C 10.58 g/m*3 12.7 C 0 km/h
585 24-09-2010 20:57:01 12.7 C 10.58 g/m*3 12.7 C 0 km/h
586 24-09-2010 21:09:02 12.8 C 10.64 g/m*3 12.8 C 0 km/h
587 24-09-2010 21:21:02 12.8 C 10.64 g/m*3 12.8 C 0 km/h
588 24-09-2010 21:33:02 12.9 C 10.71 g/m*3 12.9 C 0 km/h
589 24-09-2010 21:45:02 12.8 C 10.64 g/m*3 12.8 C 0 km/h
590 24-09-2010 21:57:02 12.8 C 10.64 g/m*3 12.8 C 0 km/h
591 24-09-2010 22:09:01 12.8 C 10.64 g/m*3 12.8 C 0 km/h
592 24-09-2010 22:21:02 12.8 C 10.64 g/m*3 12.8 C 0 km/h
593 24-09-2010 22:33:02 12.7 C 10.58 g/m*3 12.7 C 0 km/h
594 24-09-2010 22:46:04 12.6 C 10.51 g/m*3 12.6 C 0 km/h
595 24-09-2010 22:58:04 12.6 C 10.51 g/m*3 12.6 C 0 km/h
596 24-09-2010 23:10:04 12.5 C 10.44 g/m*3 12.5 C 0 km/h
597 24-09-2010 23:22:04 12.4 C 10.38 g/m*3 12.4 C 0 km/h
598 24-09-2010 23:34:04 12.4 C 10.38 g/m*3 12.4 C 0 km/h
599 24-09-2010 23:46:04 12.3 C 10.32 g/m*3 12.3 C 0 km/h
600 24-09-2010 23:58:04 12.4 C 10.38 g/m*3 12.4 C 0 km/h

Legende:
   Min
   Max


Maximal/Minimal-Werte vom 23.08.2010 - 25.09.2010

Sensor Min Max Avg
Temp
(Aussen-T/F)
5.5 °C
19-09-2010  06:04:05
28 °C
11-09-2010  17:09:02
15.61 °C

Die Daten stammen von einer Davis Vantage Pro 2 Wetter-Station und werden unter Linux mit der Software wview2wettercgi und aufbereitet. Alle Angaben erfolgen ohne Gewähr für ihre Vollständigkeit oder Richtigkeit.
Kontakt: Rainer Krienke krienke@uni-koblenz.de . Meine Webseiten an der Uni Koblenz oder privat.
Version: $Revision: 0.78 $